Regional Weather Roundup
Issued by NWS Midland/Odessa, TX

Skip options and go directly to product.
Home | Oldest Version | Previous Version | Current Version | All | Text Only | Save Text | Print | Product List | Glossary On

Skip product version selection by date and time.   
931
ASUS44 KMAF 170710
RWRMAF
MIDLAND AREA WEATHER ROUNDUP
NATIONAL WEATHER SERVICE MIDLAND TX
200 AM CDT WED SEP 17 2014

...IN SOUTHWEST TEXAS AND SOUTHEAST NEW MEXICO...

CITY           SKY/WX    TMP DP  RH WIND       PRES   REMARKS
ALPINE         CLOUDY    68  61  77 SE6       30.21S
ANDREWS        MOCLDY    68  66  94 E3        30.10F
ARTESIA        NOT AVBL
BIG SPRING     MOCLDY    74  69  85 E8        30.09F
CARLSBAD       MOCLDY    69  32  25 NW3       30.09F
DRYDEN           N/A     78  69  73 N5        30.02F
FORT STOCKTON  MOCLDY    70  64  81 SE6       30.06F
GUAD PASS      CLOUDY    64  61  90 NE26      30.20F
HOBBS          CLOUDY    66  66 100 E3        30.13F
MARFA          MOCLDY    63  59  88 NW3       30.19S
MIDLAND AIRPK  NOT AVBL
MIDLAND INTL   MOCLDY    72  66  81 E6        30.08F
ODESSA         CLOUDY    71  66  84 E5        30.10F
PECOS          CLOUDY    72  64  76 NE5       30.05S
PRESIDIO       FAIR      77  63  61 NE9       30.02F
SEMINOLE       MOCLDY    67  65  96 CALM      30.13S
SNYDER         MOCLDY    71  68  92 NE3       30.08F
WINK           MOCLDY    72  67  84 E8        30.05F
$$
...OTHER STATIONS IN TEXAS...

CITY           SKY/WX    TMP DP  RH WIND       PRES   REMARKS
ABILENE        LGT RAIN  77  68  73 SE3       30.05F
AMARILLO       CLOUDY    64  62  93 S7        30.10F
AUSTIN         CLOUDY    75  73  93 CALM      29.98F
BROWNSVILLE    PTCLDY    77  76  96 SE6       29.97F
CORPUS CHRISTI MOCLDY    79  76  90 S7        29.96S
DALLAS FTW     MOCLDY    80  70  71 S8        29.99S
DEL RIO        MOCLDY    79  72  79 E7        29.97S
EL PASO        CLOUDY    69  64  84 N14       30.09S
HOUSTON INT    CLOUDY    77  75  93 SE6       29.97F
LUBBOCK        LGT RAIN  68  67  96 S7        30.11F FOG
SAN ANGELO     CLOUDY    77  67  71 SE7       30.03F
SAN ANTONIO    CLOUDY    78  74  87 E7        29.99F
WACO           PTCLDY    73  71  93 CALM      29.99F
WICHITA FALLS  NOT AVBL
$$
...OTHER LOCATIONS IN NEW MEXICO...

CITY           SKY/WX    TMP DP  RH WIND       PRES   REMARKS
ALAMAGORDO     CLOUDY    64  64 100 CALM      30.13S
ALBUQUERQUE    CLOUDY    61  54  77 SE5       30.22F
CANNON AFB     MOCLDY    64  61  88 W7        30.15F
CLOVIS           N/A     64  61  88 SW8       30.16F
HOLLOMAN AFB   CLOUDY    65  65 100 CALM      30.11F
ROSWELL        CLOUDY    66  65  96 SW3       30.12F FOG
RUIDOSO        FOG       55  55 100 CALM      30.30F VSB 1/4
SANTA FE       CLOUDY    58  52  80 SW5       30.26S
TRUTH OR CONSE LGT RAIN  64  62  93 N3        30.15F
TUCUMCARI      MOCLDY    64  59  83 SW7       30.11S
$$

USA.gov is the U.S. government's official web portal to all federal, state and local government web resources and services.